This is the latest recevied weather packets stored in our database for station/object W7PLC. If no packets are shown the sender has not sent any weather packets the latest 10 day(s).
| Time | Temp. | Humidity | Pressure | Rain* | Wind** | Luminosity | Snow |
|---|---|---|---|---|---|---|---|
| 1777510313 | 22.22° C | 48% | 1019.8 hPa | 0 mm | - | 28 W/m² | - |
| 1777510009 | 22.22° C | 47% | 1019.7 hPa | 0 mm | - | 183 W/m² | - |
| 1777509705 | 22.22° C | 48% | 1019.7 hPa | 0 mm | - | 178 W/m² | - |
| 1777509402 | 22.78° C | 47% | 1019.7 hPa | 0 mm | - | 262 W/m² | - |
| 1777509099 | 22.78° C | 47% | 1019.5 hPa | 0 mm | - | 261 W/m² | - |
| 1777508796 | 22.78° C | 47% | 1019.5 hPa | 0 mm | - | 294 W/m² | - |
| 1777508493 | 23.33° C | 46% | 1019.5 hPa | 0 mm | - | 304 W/m² | - |
| 1777508190 | 22.78° C | 46% | 1019.4 hPa | 0 mm | - | 275 W/m² | - |
| 1777507887 | 22.78° C | 48% | 1019.6 hPa | 0 mm | - | 278 W/m² | - |
| 1777507584 | 23.33° C | 46% | 1019.6 hPa | 0 mm | - | 324 W/m² | - |
| 1777507281 | 22.78° C | 46% | 1019.8 hPa | 0 mm | - | 354 W/m² | - |
| 1777506978 | 22.22° C | 48% | 1019.7 hPa | 0 mm | - | 351 W/m² | - |
| 1777506676 | 23.33° C | 46% | 1019.7 hPa | 0 mm | - | 363 W/m² | - |
| 1777506372 | 22.22° C | 48% | 1019.9 hPa | 0 mm | - | 370 W/m² | - |
| 1777506068 | 23.33° C | 47% | 1019.8 hPa | 0 mm | - | 424 W/m² | - |
| 1777505763 | 22.78° C | 47% | 1019.8 hPa | 0 mm | - | 475 W/m² | - |
| 1777505461 | 22.78° C | 45% | 1019.9 hPa | 0 mm | - | 518 W/m² | - |
| 1777505157 | 22.78° C | 47% | 1020.1 hPa | 0 mm | - | 537 W/m² | - |
| 1777504854 | 22.78° C | 47% | 1019.9 hPa | 0 mm | - | 569 W/m² | - |
| 1777504551 | 22.78° C | 47% | 1020.1 hPa | 0 mm | - | 584 W/m² | - |
| 1777504247 | 23.33° C | 47% | 1020.2 hPa | 0 mm | - | 612 W/m² | - |
| 1777503943 | 23.33° C | 47% | 1020.1 hPa | 0 mm | - | 630 W/m² | - |
| 1777503639 | 22.78° C | 48% | 1020 hPa | 0 mm | - | 641 W/m² | - |
| 1777503336 | 22.22° C | 49% | 1020.4 hPa | 0 mm | - | 632 W/m² | - |
| 1777503032 | 21.67° C | 49% | 1020.4 hPa | 0 mm | - | 660 W/m² | - |
* Rain latest hour (hover to see other rain measurements)
** Current wind speed in m/s (hover to see current wind gust speed)